TimeCST,TemperatureF,Dew PointF,Humidity,Sea Level PressureIn,VisibilityMPH,Wind Direction,Wind SpeedMPH,Gust SpeedMPH,PrecipitationIn,Events,Conditions,WindDirDegrees,DateUTC
12:13 AM,30.2,28.4,93,30.12,5.0,Calm,Calm,-,N/A,,Clear,0,2012-11-20 06:13:00
12:33 AM,30.2,28.4,93,30.11,5.0,Calm,Calm,-,N/A,,Clear,0,2012-11-20 06:33:00
12:53 AM,30.2,26.6,86,30.11,4.0,Calm,Calm,-,N/A,,Clear,0,2012-11-20 06:53:00
1:13 AM,26.6,24.8,93,30.11,1.2,Calm,Calm,-,N/A,,Mist,0,2012-11-20 07:13:00
1:33 AM,26.6,24.8,93,30.12,0.2,Calm,Calm,-,N/A,Fog,Light Freezing Fog,0,2012-11-20 07:33:00
1:53 AM,24.8,23.0,93,30.11,0.8,Calm,Calm,-,N/A,,Mostly Cloudy,0,2012-11-20 07:53:00
2:13 AM,24.8,21.2,86,30.12,1.0,Calm,Calm,-,N/A,,Mist,0,2012-11-20 08:13:00
2:33 AM,24.8,21.2,86,30.13,0.2,Calm,Calm,-,N/A,Fog,Light Freezing Fog,0,2012-11-20 08:33:00
2:53 AM,23.0,21.2,93,30.13,3.0,Calm,Calm,-,N/A,,Mostly Cloudy,0,2012-11-20 08:53:00
3:13 AM,26.6,24.8,93,30.13,2.5,Calm,Calm,-,N/A,,Overcast,0,2012-11-20 09:13:00
3:33 AM,28.4,26.6,93,30.13,0.8,Calm,Calm,-,N/A,,Overcast,0,2012-11-20 09:33:00
3:53 AM,28.4,26.6,93,30.13,0.8,NNW,3.5,-,N/A,,Overcast,340,2012-11-20 09:53:00
4:13 AM,26.6,26.6,100,30.13,0.8,Calm,Calm,-,N/A,,Overcast,0,2012-11-20 10:13:00
4:33 AM,26.6,24.8,93,30.13,0.8,North,3.5,-,N/A,,Overcast,360,2012-11-20 10:33:00
4:53 AM,26.6,24.8,93,30.13,0.5,Calm,Calm,-,N/A,Fog,Light Freezing Fog,0,2012-11-20 10:53:00
5:13 AM,26.6,24.8,93,30.13,0.5,Calm,Calm,-,N/A,Fog,Light Freezing Fog,0,2012-11-20 11:13:00
5:33 AM,26.6,24.8,93,30.13,0.5,East,3.5,-,N/A,Fog,Light Freezing Fog,90,2012-11-20 11:33:00
5:53 AM,26.6,24.8,93,30.13,0.2,Calm,Calm,-,N/A,Fog,Light Freezing Fog,0,2012-11-20 11:53:00
6:13 AM,26.6,24.8,93,30.14,0.2,Calm,Calm,-,N/A,Fog,Light Freezing Fog,0,2012-11-20 12:13:00
6:33 AM,26.6,24.8,93,30.14,0.2,Calm,Calm,-,N/A,Fog,Light Freezing Fog,0,2012-11-20 12:33:00
6:53 AM,24.8,23.0,93,30.14,0.2,Calm,Calm,-,N/A,Fog,Light Freezing Fog,0,2012-11-20 12:53:00
7:13 AM,26.6,24.8,93,30.13,0.5,East,3.5,-,N/A,Fog,Light Freezing Fog,100,2012-11-20 13:13:00
7:33 AM,24.8,23.0,93,30.14,0.5,Calm,Calm,-,N/A,Fog,Light Freezing Fog,0,2012-11-20 13:33:00
7:53 AM,26.6,24.8,93,30.14,0.5,Calm,Calm,-,N/A,Snow,Light Snow,0,2012-11-20 13:53:00
8:13 AM,26.6,24.8,93,30.14,0.2,Calm,Calm,-,N/A,Fog,Light Freezing Fog,0,2012-11-20 14:13:00
8:33 AM,26.6,24.8,93,30.13,0.2,Calm,Calm,-,N/A,Fog,Light Freezing Fog,0,2012-11-20 14:33:00
8:53 AM,24.8,23.0,93,30.14,0.2,Calm,Calm,-,N/A,Fog,Light Freezing Fog,0,2012-11-20 14:53:00
9:13 AM,26.6,24.8,93,30.15,0.2,Calm,Calm,-,N/A,Fog,Light Freezing Fog,0,2012-11-20 15:13:00
9:33 AM,26.6,24.8,93,30.13,0.2,Calm,Calm,-,N/A,Snow,Light Snow,0,2012-11-20 15:33:00
9:53 AM,26.6,24.8,93,30.14,0.8,Calm,Calm,-,N/A,,Overcast,0,2012-11-20 15:53:00
10:13 AM,26.6,24.8,93,30.14,0.2,Calm,Calm,-,N/A,Fog,Light Freezing Fog,0,2012-11-20 16:13:00
10:33 AM,26.6,24.8,93,30.15,0.5,Calm,Calm,-,N/A,Fog,Light Freezing Fog,0,2012-11-20 16:33:00
10:53 AM,28.4,26.6,93,30.13,0.5,Calm,Calm,-,N/A,Fog,Light Freezing Fog,0,2012-11-20 16:53:00
11:13 AM,30.2,28.4,93,30.13,2.5,East,3.5,-,N/A,,Overcast,90,2012-11-20 17:13:00
11:33 AM,30.2,28.4,93,30.12,5.0,East,4.6,-,N/A,,Overcast,100,2012-11-20 17:33:00
11:53 AM,33.8,30.2,87,30.11,5.0,Calm,Calm,-,N/A,,Overcast,0,2012-11-20 17:53:00
12:13 PM,33.8,32.0,93,30.11,10.0,Calm,Calm,-,N/A,,Scattered Clouds,0,2012-11-20 18:13:00
12:33 PM,35.6,33.8,93,30.11,10.0,South,3.5,-,N/A,,Clear,180,2012-11-20 18:33:00
12:53 PM,37.4,33.8,87,30.10,10.0,SSE,3.5,-,N/A,,Clear,160,2012-11-20 18:53:00
1:13 PM,41.0,33.8,76,30.08,10.0,SE,4.6,-,N/A,,Clear,130,2012-11-20 19:13:00
1:33 PM,42.8,30.2,61,30.07,10.0,SSE,3.5,-,N/A,,Clear,160,2012-11-20 19:33:00
1:53 PM,44.6,30.2,57,30.06,10.0,SSW,6.9,-,N/A,,Clear,200,2012-11-20 19:53:00
2:13 PM,44.6,28.4,53,30.06,10.0,South,8.1,-,N/A,,Clear,170,2012-11-20 20:13:00
2:33 PM,44.6,28.4,53,30.05,10.0,South,8.1,-,N/A,,Clear,180,2012-11-20 20:33:00
2:53 PM,44.6,28.4,53,30.03,10.0,South,5.8,-,N/A,,Clear,170,2012-11-20 20:53:00
3:13 PM,44.6,28.4,53,30.03,10.0,SSE,3.5,-,N/A,,Clear,160,2012-11-20 21:13:00
3:33 PM,44.6,26.6,49,30.03,10.0,South,5.8,-,N/A,,Clear,170,2012-11-20 21:33:00
3:53 PM,42.8,26.6,53,30.03,10.0,SSE,6.9,-,N/A,,Clear,160,2012-11-20 21:53:00
4:13 PM,41.0,26.6,57,30.03,10.0,SSE,6.9,-,N/A,,Clear,160,2012-11-20 22:13:00
4:33 PM,39.2,26.6,61,30.02,10.0,SSE,4.6,-,N/A,,Clear,160,2012-11-20 22:33:00
4:53 PM,37.4,26.6,65,30.02,10.0,South,4.6,-,N/A,,Clear,180,2012-11-20 22:53:00
5:13 PM,37.4,28.4,70,30.01,10.0,South,5.8,-,N/A,,Clear,170,2012-11-20 23:13:00
5:33 PM,37.4,28.4,70,30.01,10.0,South,5.8,-,N/A,,Clear,170,2012-11-20 23:33:00
5:53 PM,37.4,28.4,70,30.01,10.0,South,5.8,-,N/A,,Clear,170,2012-11-20 23:53:00
6:13 PM,35.6,28.4,75,30.00,10.0,SSE,4.6,-,N/A,,Clear,160,2012-11-21 00:13:00
6:33 PM,35.6,28.4,75,30.00,10.0,South,5.8,-,N/A,,Clear,170,2012-11-21 00:33:00
6:54 PM,37.4,28.4,70,29.99,10.0,SSE,8.1,-,N/A,,Clear,160,2012-11-21 00:54:00
7:13 PM,37.4,28.4,70,29.99,10.0,South,8.1,-,N/A,,Clear,170,2012-11-21 01:13:00
7:33 PM,35.6,28.4,75,29.99,10.0,South,4.6,-,N/A,,Clear,170,2012-11-21 01:33:00
7:53 PM,35.6,28.4,75,29.99,10.0,South,5.8,-,N/A,,Clear,170,2012-11-21 01:53:00
8:13 PM,35.6,26.6,70,29.98,10.0,South,4.6,-,N/A,,Clear,170,2012-11-21 02:13:00
8:33 PM,33.8,26.6,75,29.99,10.0,South,4.6,-,N/A,,Clear,180,2012-11-21 02:33:00
8:53 PM,33.8,26.6,75,29.98,10.0,South,5.8,-,N/A,,Clear,170,2012-11-21 02:53:00
9:13 PM,37.4,26.6,65,29.98,10.0,SSE,4.6,-,N/A,,Clear,160,2012-11-21 03:13:00
9:33 PM,35.6,26.6,70,29.98,10.0,South,5.8,-,N/A,,Clear,170,2012-11-21 03:33:00
9:53 PM,35.6,26.6,70,29.97,10.0,South,5.8,-,N/A,,Clear,190,2012-11-21 03:53:00
10:13 PM,35.6,26.6,70,29.96,10.0,South,6.9,-,N/A,,Clear,180,2012-11-21 04:13:00
10:33 PM,37.4,26.6,65,29.94,10.0,South,5.8,-,N/A,,Clear,170,2012-11-21 04:33:00
10:53 PM,35.6,26.6,70,29.94,10.0,South,5.8,-,N/A,,Clear,170,2012-11-21 04:53:00
11:13 PM,37.4,24.8,60,29.93,10.0,SSE,5.8,-,N/A,,Clear,160,2012-11-21 05:13:00
11:33 PM,35.6,24.8,65,29.93,10.0,South,6.9,-,N/A,,Clear,180,2012-11-21 05:33:00
11:53 PM,35.6,24.8,65,29.93,10.0,South,5.8,-,N/A,,Clear,180,2012-11-21 05:53:00